Location: Moscow
(30.9132°N, 94.8252°W)
Time: 04:50:25
(UTC+00:00)

H-2A R/B - Pass Details

Date: 15 November 2025
Orbit: 299 x 31052 km, 27.9° (Epoch: 03 December)

Event Time Altitude Azimuth Distance (km) Brightness Sun altitude
Rises 01:00:39 0° 274° (W) 4,372 7.3 -21.3°
Reaches altitude 10° 01:05:07 10° 264° (W) 2,069 5.4 -22.2°
Enters shadow 01:08:11 28° 210° (SSW) 752 2.3 -22.9°
